Wind_Speed
9 9 8 7 7 5 4 3 1 1 3 5 6 8 9 10 11 12 13 15 16 17 18 19 20 21 22 23 24 25 25 25 25 25 25 25 24 23 23 22 21 19 17 13
9 9 8 7 6 5 4 2 1 1 2 4 6 7 8 9 11 12 13 14 15 16 17 18 19 20 21 22 23 24 24 24 24 25 26 26 25 24 23 23 23 22 19 16
9 8 7 7 6 5 4 2 1 2 3 4 5 7 8 9 10 11 12 13 14 15 16 18 18 19 20 21 21 22 23 23 23 24 25 25 25 24 24 24 23 23 22 18
9 8 8 7 6 4 4 3 2 3 3 5 6 7 8 9 10 11 12 13 14 15 16 17 18 18 19 20 20 21 22 22 23 23 24 24 24 24 24 23 23 23 22 20
9 9 8 7 6 5 5 4 4 4 5 6 6 7 8 9 11 12 12 13 14 14 15 16 17 18 18 19 19 20 21 21 22 22 23 23 23 23 23 23 23 22 22 21
10 9 9 8 7 7 7 6 6 7 7 7 8 9 10 10 11 12 12 13 14 14 15 16 17 17 18 18 19 19 20 20 21 21 22 22 22 22 22 22 22 21 21 20
11 10 10 9 9 9 9 8 9 9 9 9 10 10 11 11 12 13 13 14 14 15 16 16 17 17 18 18 18 19 19 20 20 20 21 21 21 21 21 21 21 20 20 20
12 12 11 10 11 11 11 11 11 11 11 11 11 12 12 13 13 14 14 15 15 16 17 17 17 17 18 18 19 19 19 19 20 20 20 19 20 20 20 20 19 19 19 19
14 14 13 13 13 13 13 13 13 13 13 13 13 14 14 14 15 15 16 16 17 17 17 18 18 18 18 19 19 19 20 19 19 19 19 19 18 19 19 19 19 18 18 18
16 16 16 15 15 15 15 15 15 15 16 16 16 16 17 17 17 17 18 18 18 18 19 19 19 19 19 19 20 20 20 20 20 19 19 19 18 18 18 18 18 17 17 17
18 18 18 18 18 17 18 18 18 18 18 18 18 19 19 19 19 19 19 19 20 20 20 21 21 21 21 21 21 21 21 21 21 20 20 19 19 18 17 17 17 17 16 16
20 20 20 20 20 20 20 20 20 20 20 20 20 21 21 21 21 21 21 21 22 22 22 23 23 23 23 23 22 22 22 22 22 21 21 20 19 19 18 18 17 17 16 16
23 23 23 22 23 23 22 22 22 22 22 22 23 23 23 23 23 23 23 24 24 24 25 25 25 25 25 25 24 24 24 23 23 23 22 21 21 20 19 19 18 17 17 16
26 25 25 25 25 25 25 25 25 25 25 25 25 25 26 26 26 26 26 27 27 27 27 27 28 28 27 27 26 26 26 25 25 24 24 23 22 22 21 20 19 19 18 17
28 28 28 28 27 27 27 28 28 28 28 28 28 29 29 29 30 30 30 30 30 30 30 30 31 31 30 29 29 28 28 27 27 27 26 25 25 24 24 23 22 21 20 19
31 31 31 31 31 30 31 31 31 31 31 31 32 32 32 33 33 33 33 33 33 33 33 33 33 33 33 32 32 31 31 30 30 30 29 29 28 27 26 26 25 24 23 22
34 34 34 34 34 34 34 34 34 34 34 35 35 35 35 36 36 36 36 36 36 36 36 35 35 35 35 35 34 34 33 33 33 33 32 32 32 31 30 29 28 28 27 26
37 37 37 37 37 37 37 37 37 37 38 38 38 38 38 38 38 38 38 37 37 37 37 37 37 37 37 37 37 37 36 36 36 36 35 35 35 35 34 33 32 32 31 30
39 40 40 40 40 40 40 40 40 40 40 40 39 39 39 39 39 39 38 38 38 39 39 39 39 39 39 39 39 39 39 39 39 39 39 38 38 38 38 37 37 36 35 34
41 41 41 41 41 42 42 42 41 41 41 41 41 41 41 41 40 40 40 40 39 39 40 40 40 41 41 41 41 41 41 41 42 42 42 41 41 41 41 41 41 40 39 39
42 43 43 43 44 44 44 43 43 43 43 43 42 42 42 41 41 41 41 41 41 41 41 42 42 43 43 43 43 44 44 44 45 45 45 45 45 45 45 45 45 44 44 43
43 43 43 44 44 44 44 44 44 44 44 44 43 43 43 43 43 42 42 42 43 43 44 44 45 44 44 45 45 46 46 47 47 48 48 48 48 48 49 49 49 49 48 48
42 42 42 42 43 43 43 44 44 44 44 44 44 44 44 44 43 43 44 44 45 45 45 45 45 45 46 47 47 48 48 49 49 50 50 50 51 51 51 52 52 52 52 52
42 42 42 42 43 43 43 43 43 44 44 44 44 44 44 44 44 45 45 45 46 46 46 46 47 47 48 49 49 50 50 51 51 52 52 52 53 54 54 55 55 56 56 56
42 43 43 43 43 43 43 43 44 44 44 44 44 45 45 45 46 46 46 46 47 47 47 48 49 50 50 51 52 52 53 53 54 54 55 55 56 56 57 58 58 58 58 59
44 44 43 43 43 43 44 44 44 44 44 45 45 45 46 46 46 46 46 47 47 48 49 50 51 51 52 53 53 54 55 56 56 57 57 58 58 58 59 59 60 60 60 61
44 44 43 43 44 44 44 44 44 44 44 45 45 45 45 45 45 46 47 48 49 50 51 51 52 53 53 54 55 56 57 57 58 58 58 58 58 59 59 59 59 60 60 61
Wind_Direction
188 187 185 182 180 179 173 160 132 47 15 11 10 12 14 15 15 15 15 15 15 16 16 17 18 18 19 20 22 23 23 23 23 23 24 25 25 25 25 24 23 21 22 21
183 184 184 182 182 183 183 185 200 331 354 358 2 4 5 6 7 8 9 10 10 11 12 13 14 15 15 16 18 20 21 22 22 22 22 24 24 25 24 24 24 24 24 23
184 185 184 184 189 192 196 209 243 299 332 343 348 350 352 354 356 359 1 3 4 5 7 8 10 11 12 13 15 17 18 19 19 20 20 22 23 23 24 25 25 25 26 26
191 194 198 199 200 204 211 228 257 288 313 326 333 339 343 346 348 351 353 355 358 360 1 3 4 6 8 10 11 13 15 16 16 17 18 19 20 21 23 24 24 25 27 28
199 204 207 211 217 224 235 249 266 283 298 309 317 324 330 335 339 342 345 347 350 353 355 357 359 1 2 3 6 8 9 11 13 14 15 16 18 19 20 21 22 23 25 27
211 216 221 226 233 241 251 261 270 280 290 299 306 313 319 324 330 334 337 340 342 344 347 349 351 353 356 357 359 1 3 5 6 8 10 12 14 15 17 18 19 21 22 24
226 231 233 237 242 249 258 268 273 279 285 292 298 304 310 315 319 323 326 330 333 335 337 340 342 344 347 350 352 354 356 358 359 1 3 5 8 11 12 14 16 18 20 21
235 238 242 246 249 254 260 266 272 277 283 288 293 298 302 307 311 315 319 322 324 327 329 331 334 336 339 341 343 345 347 349 351 353 355 357 359 3 6 8 11 13 15 16
241 245 249 251 254 257 262 266 272 277 282 287 291 295 299 302 306 309 313 315 318 320 322 324 327 329 331 333 335 337 339 341 343 345 347 349 351 354 357 360 2 4 7 9
246 249 252 254 257 260 264 268 272 276 281 285 289 293 296 299 302 305 307 309 311 313 315 317 320 322 324 326 328 330 332 334 335 337 339 341 342 344 347 350 353 354 357 0
251 253 255 256 259 262 265 268 272 275 279 283 287 290 294 296 298 301 303 305 306 308 309 311 312 314 316 319 320 322 324 326 328 329 331 333 334 334 336 340 343 345 348 350
254 255 257 259 261 264 267 270 272 275 278 282 285 288 290 293 295 297 299 301 302 303 305 306 307 308 310 312 314 314 315 317 319 321 322 324 325 326 326 328 330 333 336 338
255 257 259 261 263 266 268 270 273 275 279 282 284 286 289 291 293 295 296 297 298 299 300 301 302 303 305 306 307 308 309 309 310 312 313 314 315 316 317 318 319 320 322 324
256 258 260 262 264 267 269 271 273 275 278 281 283 285 287 289 291 292 293 294 295 296 297 298 299 299 301 301 301 302 302 303 303 304 305 306 306 307 307 308 309 309 310 311
257 258 260 263 265 267 269 271 273 276 277 279 281 283 285 287 289 290 291 293 293 294 294 295 295 296 297 297 297 297 297 297 297 298 298 299 299 299 299 299 300 301 300 300
256 258 261 263 265 267 269 271 273 275 277 279 280 282 284 286 287 288 290 291 292 292 292 293 293 293 294 294 294 294 293 293 292 292 293 293 293 293 293 293 292 292 292 292
256 258 260 262 265 267 269 271 273 275 277 278 281 282 284 285 286 288 289 289 290 290 291 291 291 291 291 291 291 291 290 290 289 289 288 288 288 287 287 287 286 285 284 284
257 259 260 263 265 267 269 271 273 275 277 279 280 282 283 285 286 288 288 289 289 290 290 290 290 289 289 289 289 289 289 288 287 286 285 284 284 283 282 282 281 280 279 278
257 258 260 262 264 266 268 270 272 274 276 278 280 281 283 284 285 286 287 288 289 289 290 290 290 290 290 289 289 289 288 287 286 285 284 282 281 280 279 278 277 276 275 274
257 258 260 262 263 266 268 270 272 274 276 278 279 281 283 284 285 285 286 287 287 288 288 289 290 290 290 290 290 289 288 287 286 284 283 281 280 278 276 275 274 273 271 271
257 259 260 262 264 265 267 269 271 274 276 277 279 281 283 284 285 286 286 287 287 288 289 289 289 290 290 289 289 289 288 287 286 285 284 281 279 277 275 273 272 271 269 268
257 259 260 262 263 265 266 268 270 272 275 277 278 280 282 283 284 285 286 287 288 289 289 290 290 290 290 290 290 289 288 287 286 285 284 282 280 277 274 272 271 269 268 267
256 258 259 261 263 264 266 267 269 272 274 276 278 280 281 282 283 284 286 287 288 289 290 290 290 291 291 291 290 290 289 288 287 285 284 282 280 278 275 273 270 268 267 265
255 257 259 261 263 264 266 268 270 272 274 276 277 279 281 282 283 285 286 288 289 289 290 291 291 291 292 292 291 291 290 289 288 286 284 283 281 279 276 274 271 269 266 264
256 258 260 261 263 264 266 268 270 272 273 275 277 278 280 282 284 285 287 288 289 290 291 292 292 293 293 293 293 292 291 291 289 288 286 284 282 280 277 275 272 270 267 264
257 259 260 261 263 265 266 268 270 272 273 275 277 279 281 283 284 286 288 289 291 292 293 293 294 294 294 294 294 294 293 292 291 289 288 286 284 281 279 276 274 270 267 264
257 259 260 261 263 265 267 268 270 271 273 276 278 280 282 283 285 287 289 291 292 293 294 295 295 296 296 296 296 295 295 294 293 292 290 288 286 283 281 278 275 272 268 265
Height
5871 5872 5873 5875 5875 5876 5876 5877 5877 5876 5875 5874 5872 5871 5869 5866 5864 5861 5858 5855 5852 5848 5845 5841 5837 5832 5828 5823 5818 5813 5808 5803 5798 5793 5788 5782 5777 5773 5768 5763 5759 5754 5750 5747
5870 5871 5872 5873 5874 5875 5875 5875 5876 5875 5875 5873 5872 5870 5868 5866 5864 5861 5859 5856 5852 5849 5845 5842 5838 5834 5829 5825 5820 5815 5811 5806 5801 5796 5790 5785 5780 5775 5770 5766 5761 5757 5752 5749
5870 5871 5872 5873 5874 5874 5874 5875 5874 5874 5874 5872 5871 5869 5868 5866 5863 5861 5858 5856 5853 5849 5846 5842 5839 5835 5831 5826 5822 5817 5813 5808 5803 5798 5793 5788 5783 5778 5773 5768 5764 5759 5755 5751
5868 5871 5871 5874 5872 5873 5873 5873 5873 5872 5872 5871 5870 5868 5866 5865 5862 5860 5858 5855 5852 5849 5846 5843 5839 5835 5832 5828 5823 5819 5815 5810 5805 5800 5796 5791 5786 5781 5776 5771 5767 5762 5758 5754
5867 5868 5870 5871 5871 5871 5871 5872 5871 5871 5870 5869 5868 5867 5865 5863 5861 5859 5857 5854 5851 5849 5846 5842 5839 5836 5832 5828 5824 5820 5816 5812 5807 5803 5798 5793 5789 5784 5779 5774 5770 5765 5761 5757
5866 5867 5868 5870 5869 5869 5870 5870 5869 5868 5868 5867 5866 5865 5864 5861 5859 5857 5855 5853 5850 5847 5845 5842 5839 5835 5832 5828 5825 5821 5817 5813 5809 5804 5800 5795 5791 5786 5782 5777 5773 5768 5764 5760
5863 5864 5865 5866 5866 5867 5868 5868 5866 5866 5865 5864 5863 5863 5861 5859 5857 5855 5853 5851 5848 5846 5843 5840 5837 5834 5831 5828 5824 5821 5817 5813 5809 5805 5801 5797 5793 5788 5784 5780 5775 5771 5767 5763
5860 5861 5864 5863 5863 5864 5864 5863 5863 5862 5862 5861 5860 5859 5858 5856 5854 5853 5851 5848 5846 5844 5841 5838 5836 5833 5830 5827 5824 5820 5817 5813 5809 5805 5801 5798 5794 5790 5786 5782 5778 5774 5770 5766
5857 5859 5859 5859 5859 5859 5859 5859 5859 5858 5858 5857 5856 5855 5854 5853 5851 5849 5847 5845 5843 5841 5838 5836 5833 5830 5828 5825 5822 5818 5815 5812 5808 5805 5801 5797 5794 5790 5787 5783 5779 5775 5772 5768
5852 5853 5853 5854 5854 5854 5854 5854 5854 5854 5853 5853 5852 5851 5850 5848 5847 5845 5843 5841 5839 5837 5835 5832 5830 5827 5825 5822 5819 5816 5813 5810 5807 5803 5800 5797 5793 5790 5786 5783 5779 5776 5773 5769
5847 5848 5848 5848 5849 5849 5849 5849 5849 5849 5848 5847 5847 5846 5845 5843 5842 5840 5839 5837 5835 5833 5830 5828 5826 5823 5821 5818 5816 5813 5810 5807 5804 5801 5798 5795 5792 5788 5785 5782 5779 5776 5773 5769
5841 5842 5842 5843 5843 5843 5843 5843 5843 5843 5842 5842 5841 5840 5839 5838 5836 5835 5833 5831 5829 5827 5825 5823 5821 5818 5816 5814 5811 5809 5806 5803 5800 5798 5795 5792 5789 5786 5783 5781 5778 5775 5772 5769
5834 5835 5835 5836 5836 5836 5836 5836 5836 5836 5836 5835 5834 5834 5832 5831 5830 5828 5827 5825 5823 5821 5819 5817 5815 5812 5810 5808 5806 5803 5801 5798 5796 5793 5791 5788 5785 5783 5780 5778 5775 5772 5770 5767
5826 5827 5828 5828 5829 5829 5829 5829 5829 5829 5828 5828 5827 5826 5825 5824 5823 5821 5820 5818 5816 5814 5812 5810 5808 5805 5804 5801 5799 5797 5795 5792 5790 5788 5785 5783 5781 5778 5776 5773 5771 5769 5767 5764
5818 5819 5820 5820 5820 5821 5821 5821 5821 5821 5820 5820 5819 5818 5817 5816 5814 5813 5811 5810 5808 5806 5804 5802 5799 5797 5795 5793 5791 5789 5787 5785 5783 5781 5779 5776 5774 5772 5770 5768 5766 5764 5762 5760
5809 5810 5810 5811 5811 5812 5812 5812 5812 5811 5811 5810 5810 5809 5808 5807 5805 5804 5802 5800 5798 5796 5794 5792 5790 5788 5786 5784 5782 5781 5779 5776 5774 5772 5771 5768 5767 5765 5763 5761 5760 5758 5756 5755
5799 5800 5800 5801 5802 5802 5802 5802 5802 5801 5801 5800 5800 5799 5797 5796 5795 5793 5792 5790 5788 5786 5784 5782 5779 5777 5775 5774 5772 5770 5768 5767 5765 5763 5761 5759 5758 5756 5754 5753 5751 5750 5749 5747
5788 5789 5790 5790 5791 5791 5791 5791 5791 5790 5790 5789 5788 5787 5786 5785 5783 5782 5780 5778 5776 5774 5772 5770 5768 5766 5764 5762 5760 5758 5757 5755 5753 5751 5750 5748 5747 5745 5744 5743 5741 5740 5739 5738
5775 5777 5777 5778 5779 5779 5779 5779 5779 5779 5778 5777 5777 5776 5774 5773 5771 5770 5768 5766 5764 5762 5760 5758 5755 5753 5751 5749 5748 5746 5744 5742 5740 5739 5737 5736 5734 5733 5732 5731 5730 5729 5728 5727
5763 5764 5765 5765 5766 5766 5767 5766 5766 5766 5766 5765 5764 5763 5762 5760 5759 5757 5756 5754 5752 5750 5748 5745 5743 5741 5739 5736 5734 5732 5730 5728 5726 5725 5723 5722 5720 5719 5718 5717 5716 5715 5715 5714
5750 5751 5751 5752 5753 5753 5753 5753 5753 5753 5753 5752 5751 5750 5749 5747 5746 5744 5742 5741 5739 5737 5735 5733 5730 5728 5725 5723 5721 5718 5716 5714 5712 5710 5708 5706 5705 5704 5702 5702 5701 5700 5700 5700
5736 5737 5738 5739 5739 5740 5740 5740 5740 5740 5739 5739 5738 5737 5736 5734 5732 5731 5729 5727 5725 5723 5721 5718 5716 5713 5711 5708 5706 5703 5700 5698 5695 5693 5691 5689 5687 5686 5685 5684 5683 5683 5683 5683
5722 5723 5724 5725 5726 5726 5726 5726 5727 5726 5726 5725 5725 5723 5722 5721 5719 5717 5715 5713 5711 5709 5706 5703 5701 5698 5695 5693 5690 5687 5684 5681 5678 5676 5673 5671 5669 5667 5666 5665 5664 5664 5664 5664
5708 5709 5710 5711 5712 5712 5713 5713 5713 5713 5712 5712 5711 5709 5708 5707 5705 5703 5701 5699 5696 5694 5691 5688 5685 5682 5679 5676 5673 5670 5666 5663 5660 5657 5654 5652 5649 5647 5645 5644 5643 5643 5643 5643
5694 5695 5696 5697 5698 5699 5699 5699 5699 5699 5698 5697 5696 5695 5694 5693 5691 5689 5686 5684 5681 5678 5676 5673 5669 5666 5662 5659 5655 5652 5648 5644 5641 5637 5634 5631 5628 5626 5623 5622 5620 5620 5619 5620
5680 5681 5682 5683 5684 5685 5685 5685 5685 5684 5684 5683 5682 5681 5680 5678 5676 5674 5671 5669 5666 5663 5660 5656 5653 5649 5645 5641 5637 5633 5628 5624 5620 5616 5613 5609 5606 5602 5600 5598 5596 5595 5595 5595
5666 5667 5668 5669 5670 5670 5670 5670 5670 5670 5669 5669 5668 5666 5665 5663 5661 5659 5656 5653 5650 5647 5643 5639 5635 5631 5627 5622 5618 5613 5608 5604 5599 5594 5590 5586 5582 5579 5575 5573 5570 5569 5569 5569